Location: Miami, Florida
(25.6830°N, 80.1700°W)
Time: 08:12:56
(UTC-04:00)

Envisat - Visible Passes

Search period start: 23 June 2018 00:00
Search period end: 03 July 2018 00:00
Orbit: 764 x 766 km, 98.2° (Epoch: 23 June)

Date Brightness Start Highest point End Pass type
(mag) Time Alt. Az. Time Alt. Az. Time Alt. Az.
23 Jun 3.7 21:05:17 10° S 21:10:14 55° W 21:15:13 10° NNW visible
24 Jun 5.9 22:12:04 10° WSW 22:12:46 10° W 22:13:28 10° W visible
25 Jun 4.9 21:31:33 10° SSW 21:35:51 28° W 21:40:10 10° NW visible
26 Jun 3.2 20:54:02 10° S 20:59:05 74° WSW 21:04:09 10° NNW visible
27 Jun 5.6 21:58:53 10° SW 22:01:32 14° W 22:04:11 10° WNW visible
28 Jun 4.4 21:20:01 10° SSW 21:24:40 37° W 21:29:20 10° NNW visible
29 Jun 3.0 20:42:52 10° SSE 20:47:56 84° ENE 20:53:01 10° N visible
30 Jun 5.4 21:46:46 10° SW 21:50:18 19° W 21:53:52 10° NW visible
01 Jul 3.9 21:08:36 10° S 21:13:29 49° W 21:18:23 10° NNW visible
